Lexington Weather

Lexington, Massachusetts, USA

30°F
4/1/2020 2:57am 
  • Lexington Conditions: Clear
  • Temperature: 29.7°F / -1.3°CColder 0.3°F than last hour.
  • Dew Point: 27.7°F 
  • Relative Humidity: 92%Increased 1.0% since last hour.
  • Wind: Calm, 10-min avg: Calm, gust: None
  • Barometer: 29.87 in Steady
  • Visibility: 10 miles
  • Snow Today: 0.0 in
  •   

Regional Weather Roundup
for Boston / Norton, MA

        
000
ASUS41 KBOX 311105
RWRBOX

REGIONAL WEATHER ROUNDUP
NATIONAL WEATHER SERVICE BOSTON/NORTON MA
700 AM EDT TUE MAR 31 2020

NOTE:  "FAIR" INDICATES FEW OR NO CLOUDS BELOW 12,000 FEET WITH NO 
SIGNIFICANT WEATHER AND/OR OBSTRUCTIONS TO VISIBILITY.

MAZALL-311200-
EASTERN MASSACHUSETTS
  
CITY           SKY/WX    TMP DP  RH WIND       PRES   REMARKS
BOSTON         MOCLDY    34  30  85 N13       30.07R WCI  25          
BEVERLY        FAIR      34  30  85 N10       30.06R WCI  26          
LAWRENCE       MOCLDY    32  29  88 N13       30.09R WCI  22          
BEDFORD        CLOUDY    34  29  82 N7G16     30.07R WCI  28          
BLUE HILL        N/A     32  31  96 N10       30.02  WCI  24          
NORWOOD        CLOUDY    36  30  79 N8        30.06R WCI  30          
MARSHFIELD     MOCLDY    39  34  81 VRB7G18   30.04R                  
PLYMOUTH       CLOUDY    37  34  89 N15         N/A  WCI  28          
TAUNTON        CLOUDY    36  33  89 VRB7      30.04R WCI  30          
NEW BEDFORD    MIX PCPN  36  36 100 N6        30.02R FOG     WCI  31  
$$

MAZALL-311200-
CAPE COD AND THE ISLANDS
  
CITY           SKY/WX    TMP DP  RH WIND       PRES   REMARKS
FALMOUTH       CLOUDY    37  34  87 NE16      30.00R WCI  28          
HYANNIS        MOCLDY    40  32  73 N9G22     29.98R                  
CHATHAM        CLOUDY    39  32  76 NE9G21    30.00R                  
PROVINCETOWN   CLOUDY    38  32  79 N15G22    30.03R WCI  29          
NANTUCKET      CLOUDY    38  34  85 NE13      29.99R WCI  30          
MARTHAS VNYRD  MOCLDY    38  34  85 N13       30.00R WCI  30          
$$
 
MAZALL-311200-
CENTRAL AND WESTERN MASSACHUSETTS
  
CITY           SKY/WX    TMP DP  RH WIND       PRES   REMARKS
WORCESTER      CLOUDY    31  27  85 NE10G21   30.03R WCI  22          
FITCHBURG      CLOUDY    33  29  85 NE7       30.08R WCI  27          
ORANGE         CLOUDY    34  30  85 N6        30.08R WCI  29          
SPRINGFIELD    MOCLDY    34  32  90 NE5       30.07R WCI  30          
WESTFIELD      CLOUDY    35  32  88 N7        30.07R WCI  29          
NORTH ADAMS    CLOUDY    35  29  78 E9        30.06R WCI  28          
PITTSFIELD     CLOUDY    33  30  88 VRB5      30.02R WCI  29          
$$
 
RIZALL-311200-
RHODE ISLAND
  
CITY           SKY/WX    TMP DP  RH WIND       PRES   REMARKS
PROVIDENCE     CLOUDY    37  33  85 N14       30.05R WCI  28          
NEWPORT        CLOUDY    38  32  79 N12G21    30.02R WCI  30          
BLOCK ISLAND   CLOUDY    37  32  82 NE14G23   30.03R WCI  28          
SMITHFIELD     CLOUDY    33  32  96 N12       30.04R WCI  24          
WESTERLY       CLOUDY    40  32  73 N9        30.05R                  
$$
 
CTZALL-311200-
CONNECTICUT
  
CITY           SKY/WX    TMP DP  RH WIND       PRES   REMARKS
BRADLEY INTL   MOCLDY    35  32  88 N7        30.07R WCI  29          
HARTFORD       CLOUDY    38  31  76 N8        30.08R                  
BRIDGEPORT     CLOUDY    40  33  76 NE9       30.06R                  
DANBURY        CLOUDY    37  33  85 NE9       30.06R WCI  30          
GROTON         LGT RAIN  36  36 100 N8        30.05R FOG     WCI  30  
NEW HAVEN      CLOUDY    40  34  79 N5        30.06R                  
CHESTER        CLOUDY    37  34  87 NE7       30.04R                  
MERIDEN        CLOUDY    38  32  79 N6        30.06R                  
WILLIMANTIC    CLOUDY    36  31  82 N8        30.06R WCI  30          
OXFORD         CLOUDY    35  33  92 NE8       30.04R WCI  29          
$$

MEZ002-015-021-024-NHZ003-005-008-011-012-014-VTZ005-008-311200-
NORTHERN NEW ENGLAND
  
CITY           SKY/WX    TMP DP  RH WIND       PRES   REMARKS
PORTLAND ME    MOCLDY    33  22  63 N12       30.10R WCI  24          
BANGOR ME      MOCLDY    28  21  75 N14       30.11R WCI  17          
CONCORD NH     CLOUDY    32  29  88 NW3       30.09R                  
MANCHESTER NH  MOCLDY    34  29  82 N6        30.07R WCI  29          
NASHUA NH      FAIR      32  32 100 N5        30.09R WCI  27          
PORTSMOUTH NH  MOCLDY    33  28  82 N8        30.07R WCI  26          
JAFFREY NH     CLOUDY    32  31  96 CALM      30.04R                  
KEENE NH       CLOUDY    33  31  92 CALM      30.08R                  
BURLINGTON VT  CLOUDY    37  35  92 CALM      30.09R                  
MT. WASHINGTON MOCLDY    16  10  79 E25         N/A  WCI  -3          
$$

NYZ052-076-311200-
EASTERN NEW YORK
  
CITY           SKY/WX    TMP DP  RH WIND       PRES   REMARKS
ALBANY         LGT RAIN  38  34  85 CALM      30.06R                  
NEW YORK CITY  CLOUDY    42  36  79 E14       30.04R                  
$$
 
ANZALL-311200-
MARINE OBSERVATIONS
  
STATION/POSITION TIME  TEMP    WIND        PRES    VSBY  WAVE
                       AIR SEA DIR/SP/G                  HT/PER
                 (UTC) (F)     (DEG/KT/KT) (MB)    (MI)  (FT/S)
BOSTON BUOY      1050   38 42   10/ 19/ 25 1016.5R         9/10
BUZZARDS BAY     1000           10/ 17/ 19 1016.4R
NANTUCKET SOUND  1040                        N/A           3/ 3
MASS BAY-STELLWA 1004   38 42   40/ 19/ 23 1015.1R  1 7/8  9/11
ISLE OF SHOALS   1000   34      10/ 19/ 21 1017.7R
S OF BLOCK IS    1030      44                N/A           5/ 9
$$

......................KEY.........................
  SKY/WX - SKY CONDITION/PRESENT WEATHER
  TMP    - TEMPERATURE IN FAHRENHEIT
  DWPT   - DEWPOINT IN FAHRENHEIT
  RH     - RELATIVE HUMIDITY IN PERCENT
  WIND   - DIRECTION AND SPEED IN MPH
  PRES   - MEAN SEA LEVEL PRESSURE IN INCHES OF HG
  WCI    - WIND CHILL INDEX
  VSB    - VISIBILITY IN MILES
  HX     - HEAT INDEX
  TC     - TEMPERATURE IN CELSIUS
  VRB    - VARIABLE WIND DIRECTION
  N/A    - NOT AVAILABLE
  
      

Other recent Regional Weather Roundups

Wed Apr 1, 2:04am

Wed Apr 1, 1:04am

Wed Apr 1, 12:04am

Tue Mar 31, 11:04pm

Tue Mar 31, 10:04pm

Tue Mar 31, 9:04pm

Tue Mar 31, 8:04pm

Tue Mar 31, 7:04pm

Tue Mar 31, 6:04pm

Tue Mar 31, 4:04pm

Tue Mar 31, 3:04pm

Tue Mar 31, 2:04pm

Tue Mar 31, 1:04pm

Tue Mar 31, 12:05pm

Tue Mar 31, 11:04am

Tue Mar 31, 10:05am

Tue Mar 31, 9:04am

Tue Mar 31, 8:04am

Tue Mar 31, 6:04am

Tue Mar 31, 5:04am

Tue Mar 31, 4:04am

Tue Mar 31, 3:04am

Tue Mar 31, 2:04am

Tue Mar 31, 1:04am

Tue Mar 31, 12:04am

Mon Mar 30, 11:04pm

Mon Mar 30, 10:04pm

Mon Mar 30, 9:05pm

Mon Mar 30, 8:04pm

Mon Mar 30, 7:04pm

Mon Mar 30, 6:04pm

Mon Mar 30, 5:05pm

Mon Mar 30, 4:04pm

Mon Mar 30, 3:04pm

Mon Mar 30, 2:04pm

Mon Mar 30, 1:04pm

Mon Mar 30, 12:04pm

Mon Mar 30, 11:04am

Mon Mar 30, 10:04am

Mon Mar 30, 9:04am

Mon Mar 30, 8:04am

Mon Mar 30, 7:04am

Mon Mar 30, 6:04am

Mon Mar 30, 5:04am

Mon Mar 30, 4:04am

Mon Mar 30, 3:05am

Mon Mar 30, 2:04am

Mon Mar 30, 1:04am

Mon Mar 30, 12:04am

Sun Mar 29, 11:04pm

Sun Mar 29, 10:05pm

Sun Mar 29, 9:04pm

Sun Mar 29, 8:04pm

Sun Mar 29, 7:04pm

Sun Mar 29, 6:04pm

Sun Mar 29, 5:05pm

Sun Mar 29, 4:04pm

Sun Mar 29, 3:04pm

Sun Mar 29, 2:04pm

Sun Mar 29, 1:05pm

Sun Mar 29, 12:04pm

Sun Mar 29, 11:04am

Sun Mar 29, 10:04am

Sun Mar 29, 9:04am

Sun Mar 29, 8:04am

Sun Mar 29, 7:04am

Sun Mar 29, 6:04am

Sun Mar 29, 5:04am

Sun Mar 29, 4:04am

Sun Mar 29, 3:04am

Meta data:

ID: de5f1583-160b-4d2f-9a9c-47e05034132b
Link: https://api.weather.gov/products/de5f1583-160b-4d2f-9a9c-47e05034132b